Location: Zilina
(0.0000°N, 18.7333°E)
Time: 14:02:29
(UTC+02:00)

BLOCK DM-SL R/B - Pass Details

Date: 19 February 2019
Orbit: 714 x 21633 km, 0.1° (Epoch: 19 October)

Event Time Altitude Azimuth Distance (km) Brightness Sun altitude
Rises 19:18:25 0° 270° (W) 17,941 11.5 -19.5°
Reaches altitude 10° 19:46:48 10° 270° (W) 11,368 9.9 -26.4°
Maximum altitude 20:15:56 90° 199° (SSW) 1,715 4.5 -33.5°
Enters shadow 20:16:51 75° 91° (E) 1,619 4.3 -33.7°
